User: anonymous   Login
Location: Columbia
(38.9520°N, 92.3340°W)
Time: 12:49:40
(UTC-05:00)
Language:

SL-08 RB Rocket - Orbit

View from above orbital plane
View from above orbital plane
View from above satellite
View from above satellite

Ground track
Ground track

The orbit data is extracted from the following two-line orbital elements,

1 26387U 00033D   15187.27721069  .00000469  00000-0  90041-4 0  9995
2 26387 098.0619 254.9977 0028031 078.0216 322.2937 14.67919806803428
Epoch (UTC): 06 July 2015 06:39:11
Eccentricity: 0.0028031
inclination: 98.0619°
perigee height: 648 km
apogee height: 687 km
right ascension of ascending node: 254.9977°
argument of perigee: 78.0216°
revolutions per day: 14.67919806
mean anomaly at epoch: 322.2937°
orbit number at epoch: 80342

The dashed part of the orbit path shows where the satellite is in the earth's shadow,  

DLR